Flag for U.S.A. Weather past 2 weeks in Lexington, North Carolina, U.S.A.

Now
58 °F

Mostly cloudy.


Feels Like: 57 °F
Forecast: 40 / 62 °F
Wind: 5 mph from North

Location: Davidson County Airport

Current Time: Mar 27, 2015 at 4:13:34 AM

Latest Report: Mar 27, 2015 at 3:55 AM


Visibility: 10 mi

Pressure: 29.69 "Hg

Humidity: 67%

Dew point: 47 °F

Location of LexingtonLocation

Historic Weather in Lexington — Graph

°F

Lexington temperature yesterday

Maximum temperature yesterday: 75 °F (at 3:55 PM)
Minimum temperature yesterday: 53 °F (at 7:35 AM)
Average temperature yesterday: 62 °F

Past Weeks' High & Low Weather Summary

 TemperatureHumidityPressure
High82 °F (Mar 16, 4:55 PM)100% (Mar 15, 4:15 AM)30.54 "Hg (Mar 15, 4:15 AM)
Low36 °F (Mar 21, 7:55 AM)6% (Mar 16, 5:55 PM)29.68 "Hg (Mar 27, 1:35 AM)
Average54 °F63%30.12 "Hg
* Reported Mar 12 2:15 AM — Mar 27 2:55 AM, Lexington, Weather by CustomWeather, © 2015

Note: Actual official high and low records may vary slightly from our data, if they occured in-between our weather recording intervals... More about our weather records

Advertising

Lexington weather history for previous 24 hours

 ConditionsComfort  
Time TempWeatherWind HumidityBarometerVisibility
2:55 AM
Fri, Mar 27
62 °FPassing clouds.No wind79%29.68 "Hg10 mi
2:15 AM64 °FPassing clouds.No wind75%29.69 "Hg10 mi
1:55 AM64 °FClear.No wind76%29.68 "Hg10 mi
1:35 AM64 °FClear.5 mph74%29.68 "Hg10 mi
1:15 AM65 °FClear.5 mph72%29.69 "Hg10 mi
12:55 AM65 °FClear.6 mph71%29.69 "Hg10 mi
12:35 AM65 °FClear.6 mph70%29.70 "Hg10 mi
12:15 AM66 °FClear.9 mph70%29.70 "Hg10 mi
11:55 PM
Thu, Mar 26
66 °FClear.7 mph70%29.70 "Hg10 mi
11:15 PM65 °FClear.10 mph68%29.70 "Hg10 mi
10:55 PM66 °FClear.7 mph67%29.70 "Hg10 mi
10:15 PM66 °FClear.5 mph64%29.71 "Hg10 mi
9:55 PM67 °FClear.7 mph63%29.71 "Hg10 mi
9:15 PM66 °FClear.5 mph65%29.72 "Hg10 mi
8:35 PM67 °FSunny.6 mph62%29.72 "Hg10 mi
8:15 PM68 °FSunny.5 mph61%29.72 "Hg10 mi
7:55 PM68 °FSunny.9 mph60%29.72 "Hg10 mi
7:35 PM69 °FSunny.8 mph58%29.71 "Hg10 mi
7:15 PM69 °FSunny.6 mph56%29.72 "Hg10 mi
6:55 PM70 °FSunny.8 mph53%29.72 "Hg10 mi
6:35 PM71 °FSunny.5 mph50%29.73 "Hg10 mi
6:15 PM71 °FSunny.7 mph50%29.73 "Hg10 mi
5:55 PM72 °FSunny.9 mph49%29.74 "Hg10 mi
5:15 PM72 °FScattered clouds.12 mph54%29.76 "Hg10 mi
4:55 PM73 °FPartly sunny.15 mph53%29.77 "Hg10 mi
4:15 PM74 °FScattered clouds.13 mph50%29.77 "Hg10 mi
3:55 PM75 °FScattered clouds.16 mph49%29.78 "Hg10 mi
3:15 PM73 °FScattered clouds.6 mph53%29.80 "Hg10 mi
2:55 PM72 °FPartly sunny.13 mph57%29.82 "Hg10 mi
2:15 PM70 °FScattered clouds.7 mph62%29.82 "Hg10 mi
1:55 PM70 °FScattered clouds.8 mph64%29.82 "Hg10 mi
1:35 PM68 °FScattered clouds.6 mph69%29.84 "Hg10 mi
1:15 PM67 °FBroken clouds.7 mph71%29.86 "Hg10 mi
12:55 PM67 °FPartly sunny.7 mph72%29.88 "Hg10 mi
12:35 PM65 °FBroken clouds.5 mph77%29.88 "Hg7 mi
12:15 PM63 °FCloudy.7 mph82%29.91 "Hg7 mi
11:55 AM63 °FMore clouds than sun.6 mph84%29.92 "Hg7 mi
11:35 AM62 °FMostly cloudy.3 mph86%29.93 "Hg7 mi
11:15 AM60 °FFog.7 mph87%29.94 "Hg5 mi
10:55 AM59 °FFog.5 mph91%29.94 "Hg5 mi
10:35 AM59 °FFog.7 mph94%29.96 "Hg5 mi
10:15 AM59 °FFog.3 mph93%29.96 "Hg5 mi
9:55 AM58 °FFog.5 mph97%29.96 "Hg3 mi
9:35 AM56 °FFog.No wind98%29.97 "Hg2 mi
9:15 AM55 °FFog.No wind98%29.97 "Hg1 mi
8:55 AM54 °FFog.No wind99%29.97 "Hg1 mi
8:15 AM53 °FFog.No wind98%29.98 "Hg1 mi
7:55 AM53 °FFog.No wind98%29.98 "Hg1 mi
7:35 AM53 °FFog.No wind98%29.97 "Hg1 mi
7:15 AM53 °FFog.No wind97%29.97 "Hg2 mi
6:55 AM54 °FFog.No wind98%29.97 "Hg1 mi
6:35 AM54 °FPassing clouds.No wind97%29.97 "Hg2 mi
6:15 AM54 °FPassing clouds.No wind97%29.97 "Hg2 mi
5:55 AM54 °FFog.No wind97%29.98 "Hg3 mi
5:35 AM54 °FFog.No wind97%29.97 "Hg3 mi
5:15 AM54 °FFog.No wind98%29.98 "Hg3 mi
4:55 AM54 °FFog.No wind97%29.99 "Hg4 mi
4:15 AM54 °FLight rain. Overcast.No wind97%30.00 "Hg2 mi
Weather by CustomWeather, © 2015

See weather overviewHow to use our weather pages